Regional Weather Roundup
Issued by NWS Newport/Morehead, NC

Current Version | Previous Version | Graphics & Text | Print | Product List | Glossary On
Versions: 1 2 3 4 5 6 7 8 9 10 11 12 13 14 15 16 17 18 19 20 21 22 23 24 25 26 27 28 29 30 31 32 33 34 35 36 37 38 39 40 41 42 43 44 45 46 47 48 49 50
000 ASUS42 KMHX 200122 RWRMHX WEATHER ROUNDUP FOR EASTERN NORTH CAROLINA NATIONAL WEATHER SERVICE NEWPORT/MOREHEAD CITY NC 900 PM EDT FRI SEP 19 2014 NOTE: "FAIR" INDICATES FEW OR NO CLOUDS BELOW 12,000 FEET WITH NO SIGNIFICANT WEATHER AND/OR OBSTRUCTIONS TO VISIBILITY NCZ015>017-031-032-045>047-102-103-200200- NORTH COAST CITY SKY/WX TMP DP RH WIND PRES REMARKS EDENTON CLEAR 64 59 83 CALM 30.24S ELIZABETH CITY CLEAR 68 60 75 NE8 30.24R KITTY HAWK PTCLDY 72 57 60 E9 30.22S MANTEO PTCLDY 71 58 63 NE15G21 30.24R $$ NCZ045>047-081-094-103-104-200200- CENTRAL COAST CITY SKY/WX TMP DP RH WIND PRES REMARKS FRISCO CLOUDY 71 62 73 NE10G21 30.20R SWANQUARTER N/A 68 N/A N/A NE7G13 30.18S $$ NCZ095-097-098-100-101-200200- SOUTHERN COAST CITY SKY/WX TMP DP RH WIND PRES REMARKS BEAUFORT CLOUDY 72 63 73 NE9 30.19R CEDAR ISLAND N/A 73 N/A N/A NE20G29 30.24S JACKSONVILLE MOCLDY 71 62 73 NE12 30.19R NEWPORT NOT AVBL PINEY ISLAND MOCLDY 75 63 66 NE17G23 30.20R WILMINGTON CLOUDY 71 64 78 NE12 30.16R $$ NCZ011>013-027>030-043-044-078>080-089-090>093-098-200200- COASTAL PLAIN CITY SKY/WX TMP DP RH WIND PRES REMARKS AHOSKIE CLEAR 64 58 79 CALM 30.25R CLINTON CLEAR 69 61 76 CALM 30.19S ELIZABETHTOWN PTCLDY 69 61 76 CALM 30.17S GOLDSBORO CLEAR 69 65 86 NE10 30.19R GREENVILLE CLEAR 68 59 73 E7 30.23S HAVELOCK CLOUDY 72 60 66 NE10 30.21R KENANSVILLE PTCLDY 67 59 75 CALM 30.21R KINSTON CLEAR 68 59 73 NE7 30.22R NEW BERN MOCLDY 71 59 65 NE9 30.21R RICHLANDS MOCLDY 70 57 64 NE9 30.20R ROANOKE RAPIDS NOT AVBL ROCKY MOUNT CLEAR 65 56 72 CALM 30.22R WASHINGTON CLEAR 65 59 79 NE6 30.23S WHITEVILLE MOCLDY 71 64 76 NE6 30.16R $$ AMZ130-135-150-152-154-156-158-170-250-252-270-ANZ085-086-088-633-658-670-200200- MARINE OBSERVATIONS STATION/POSITION TIME TEMP WIND PRES WAVE SWELL AIR SEA DIR/SP/G HT/PER HT/PER (UTC) (F) (DEG/KT/KT) (MB) (FT/S) (FT/S) CHESAPEAKE LIGHT 0100 71 70/ 15/ 17 1025.0 BUOY 44014 0100 73 75 50/ 16/ 19 1023.4 4/ 4 2/10 DUCK 0100 73 75 60/ 18/ 21 1023.1 2E DUCK 0100 N/A 4/ 6 2/11 OREGON INLET 0100 73 74 40/ 16/ 21 1023.3 BUOY 44095 0100 75 N/A 5/ 5 2/11 20E OREGON INLET NOT AVBL HATTERAS CG 0100 73 76 40/ 13/ 19 1022.9 DIAMOND BUOY 0100 76 50/ 17/ 19 1021.5 6/ 6 2/14 CAPE LOOKOUT 0100 75 40/ 23/ 26 1021.9 BEAUFORT LAB 0100 72 77 40/ 8/ 12 1021.6 30 SE NEW RIVER 0100 78 83 50/ 23/ 29 1020.7 7/ 6 2/11 5 SE WRIGHTSVILL 0100 74 80 60/ 21/ 27 N/A BUOY 41002 NOT AVBL BUOY 41004 0100 79 82 60/ 17/ 19 1016.8 6/ 7 $$

USA.gov is the U.S. government's official web portal to all federal, state and local government web resources and services.